This demonstration page uses our WeatherBlox Daily Observations layout. Learn more.

Left ArrowRight Arrow

Hourly Observations for February 6, 2017

Temp ( °F °C ) Dew Point ( °F °C ) Humidity (%) Winds ( mph kmh ) Pressure ( in mb ) Visibility ( mi km ) Precip ( " mm )
12:53 am 00:53 Clear 49 9.4 45 7.2 86 86 SE 9 15 29.87 1012 10 16 0.00 0.00
1:53 am 01:53 Clear 47 8.3 45 7.2 93 93 SE 7 11 29.86 1011 7 11 0.00 0.00
2:53 am 02:53 Clear with Mist and Fog 44 6.7 43 6.1 96 96 Calm 29.86 1011 4 6 0.00 0.00
3:11 am 03:11 Clear with Mist and Fog 41 5 41 5 100 100 N 5 7 29.97 1015 2 3 0.00 0.00
3:30 am 03:30 Partly Cloudy with Mist and Fog 41 5 41 5 100 100 Calm 29.97 1015 2 3 0.00 0.00
3:34 am 03:34 Mostly Cloudy with Mist and Fog 43 6 41 5 93 93 Calm 29.97 1015 2 3 0.00 0.00
3:49 am 03:49 Cloudy 43 6 41 5 93 93 N 6 9 29.97 1015 N/A 0.00 0.00
3:53 am 03:53 Cloudy with Mist and Fog 42 5.6 42 5.6 100 100 NE 3 6 29.85 1011 2 3 0.00 0.00
4:01 am 04:01 Mostly Cloudy with Mist and Fog 42 5.6 42 5.6 100 100 Calm 29.97 1015 1 1 0.00 0.00
4:11 am 04:11 Mostly Cloudy with Fog 43 6.1 43 6.1 100 100 Calm 29.97 1015 0 0 0.00 0.00
4:53 am 04:53 Mostly Cloudy with Fog 46 7.8 46 7.8 100 100 ESE 5 7 29.85 1011 5 8 0.00 0.00
5:26 am 05:26 undefined 45 7.2 45 7.2 100 100 undefined N/A 29.94 1014 N/A 0.00 0.00
5:53 am 05:53 Mostly Clear with Fog 45 7.2 45 7.2 100 100 Calm 29.86 1011 0 0 0.00 0.00
6:03 am 06:03 undefined 45 7 45 7 100 100 undefined N/A 29.97 1015 N/A 0.00 0.00
6:53 am 06:53 undefined 43 6.1 43 6.1 100 100 Calm 29.88 1012 N/A 0.00 0.00
7:01 am 07:01 Mostly Clear with Fog 43 6.1 43 6.1 100 100 Calm 30.00 1016 0 0 0.00 0.00
7:23 am 07:23 Mostly Cloudy with Fog 43 6.1 43 6.1 100 100 Calm 30.00 1016 0 0 0.00 0.00
7:53 am 07:53 Mostly Cloudy with Fog 43 6.1 43 6.1 100 100 Calm 29.91 1013 0 0 0.00 0.00
8:27 am 08:27 Mostly Cloudy with Mist and Fog 43 6.1 43 6.1 100 100 Calm 30.00 1016 1 2 0.00 0.00
8:36 am 08:36 Partly Cloudy with Mist and Fog 43 6 43 6 100 100 Calm 30.00 1016 3 4 0.00 0.00
8:53 am 08:53 Partly Cloudy with Mist and Fog 43 6.1 43 6.1 100 100 Calm 29.92 1013 3 5 0.00 0.00
9:03 am 09:03 Partly Cloudy with Mist and Fog 45 7 45 7 100 100 Calm 30.00 1016 3 4 0.00 0.00
9:14 am 09:14 Partly Cloudy with Mist and Fog 45 7 45 7 100 100 Calm 30.00 1016 4 6 0.00 0.00
9:53 am 09:53 Mostly Sunny 46 7.8 45 7.2 96 96 SSE 6 9 29.91 1013 9 14 0.00 0.00
10:53 am 10:53 Mostly Sunny 63 17.2 37 2.8 38 38 SW 14 22 29.88 1012 10 16 0.00 0.00
11:53 am 11:53 Sunny 73 22.8 29 -1.7 19 19 SW 18 30 29.85 1011 10 16 0.00 0.00
12:53 pm 12:53 Sunny 75 23.9 26 -3.3 16 16 WSW 22 35 29.81 1009 10 16 0.00 0.00
1:53 pm 13:53 Sunny 76 24.4 20 -6.7 12 12 W 24 39 29.77 1008 10 16 0.00 0.00
2:53 pm 14:53 Sunny 75 23.9 23 -5 14 14 W 17 28 29.76 1008 10 16 0.00 0.00
3:53 pm 15:53 Sunny 75 23.9 22 -5.6 14 14 W 20 31 29.76 1008 10 16 0.00 0.00
4:53 pm 16:53 Sunny 74 23.3 25 -3.9 16 16 W 17 28 29.77 1008 10 16 0.00 0.00
5:53 pm 17:53 Sunny 72 22.2 25 -3.9 17 17 W 15 24 29.76 1008 10 16 0.00 0.00
6:53 pm 18:53 Clear 68 20 23 -5 18 18 W 7 11 29.78 1008 10 16 0.00 0.00
7:53 pm 19:53 Clear 67 19.4 20 -6.7 17 17 W 17 28 29.79 1009 10 16 0.00 0.00
8:53 pm 20:53 Clear 64 17.8 20 -6.7 18 18 W 12 19 29.80 1009 10 16 0.00 0.00
9:53 pm 21:53 Clear 57 13.9 22 -5.6 26 26 W 9 15 29.81 1009 10 16 0.00 0.00
10:53 pm 22:53 Clear 55 12.8 23 -5 29 29 W 10 17 29.80 1009 10 16 0.00 0.00
11:53 pm 23:53 Clear 51 10.6 24 -4.4 35 35 W 9 15 29.80 1009 10 16 0.00 0.00

Powered by AerisWeather